Theta_e
338 337 334 335 335 335 336 337 338 339 339 340 344 347 350 352 353 353 354 355 355 356 357 355 355 354 354 356 356 356 358 356 359 356 353 355 355 357 359 360 358 359 360 359 359 357 358 361 360 359 361 364 364 366 368 368 367 370 366 368 367 365 364
336 336 335 334 334 334 335 337 338 339 339 339 345 346 349 351 353 353 354 356 356 357 358 356 358 355 355 357 356 358 358 357 361 360 355 360 360 359 359 358 357 359 359 359 358 363 360 359 360 358 360 365 365 366 367 366 365 364 364 367 365 364 365
336 337 335 334 334 333 334 336 338 339 339 339 345 346 348 351 353 353 354 355 356 358 359 358 358 357 356 356 355 357 358 357 359 359 357 358 360 359 359 359 359 358 360 358 361 361 363 358 359 358 360 362 363 365 365 364 363 365 364 364 366 363 363
337 338 339 335 334 334 336 336 338 339 339 339 342 347 349 352 354 354 356 356 355 357 356 358 358 359 358 356 356 356 357 357 357 358 357 357 356 357 357 359 359 358 359 358 360 362 361 358 358 361 368 360 361 364 365 363 363 364 362 363 363 363 364
339 340 340 339 337 335 335 336 338 338 338 339 340 345 350 352 353 354 356 357 357 356 357 358 359 359 359 358 357 358 357 357 357 356 356 355 355 355 355 357 356 356 357 358 357 358 361 357 358 361 361 359 362 363 364 362 361 363 363 365 362 360 362
336 339 339 339 341 336 337 336 337 339 339 338 340 344 348 350 352 353 354 355 356 357 358 357 357 358 357 358 357 357 356 356 356 356 355 354 355 354 354 355 355 356 357 356 360 357 358 358 357 360 359 360 361 361 362 362 361 362 364 364 361 361 361
335 338 339 339 341 342 338 337 337 341 340 340 342 346 347 348 350 351 353 353 355 355 356 355 356 357 357 358 356 356 355 355 355 356 356 356 356 354 354 354 356 355 357 356 356 356 356 356 357 357 358 357 358 359 358 359 358 361 363 362 360 362 360
338 338 339 339 340 342 340 337 338 341 341 343 343 345 344 347 349 350 351 352 353 355 354 354 354 355 356 356 356 355 356 355 356 356 355 354 353 354 353 353 354 354 356 354 356 356 355 358 358 358 357 356 356 355 358 359 359 361 361 362 361 364 364
340 340 340 340 341 342 345 339 338 340 341 344 342 345 344 345 347 348 349 351 350 352 352 353 353 353 354 354 353 352 356 355 354 354 354 353 351 353 352 352 353 356 355 353 354 355 356 357 356 358 357 356 355 355 359 359 360 360 360 361 362 362 362
340 340 340 341 341 342 342 342 338 340 341 344 343 345 344 345 347 347 348 349 349 350 350 350 351 351 352 352 352 351 352 352 353 353 353 352 352 351 351 351 352 357 354 353 352 354 356 356 356 358 356 356 358 358 359 360 361 360 359 361 362 361 360
339 340 340 340 340 340 342 343 338 340 342 344 343 346 345 345 348 348 349 348 348 349 349 348 348 351 351 352 350 349 349 350 351 352 352 352 351 351 351 350 351 355 353 352 351 352 353 356 356 357 357 355 359 358 358 357 359 360 359 361 362 361 361
334 339 339 340 340 343 346 344 342 340 342 347 344 345 345 346 350 349 351 350 348 349 349 348 352 350 349 351 350 348 348 348 348 349 351 351 350 349 349 350 349 351 353 352 351 352 352 353 355 358 359 356 357 358 359 359 360 361 360 357 358 360 361
336 337 336 340 339 339 339 342 350 344 342 348 345 346 345 347 351 350 350 351 351 349 349 352 351 349 348 349 351 349 349 350 347 347 348 350 348 348 347 348 348 347 351 353 351 351 350 352 354 358 357 358 358 357 359 360 361 360 360 359 358 358 358
340 336 339 339 338 337 338 340 347 350 345 347 346 350 348 349 352 352 351 353 356 354 352 355 353 350 349 348 351 352 350 350 352 351 352 354 352 350 349 348 345 346 347 352 351 351 351 352 352 354 357 358 358 358 359 360 359 359 361 361 359 358 359
336 337 337 339 338 336 336 343 349 350 350 351 352 353 353 356 357 358 358 359 359 359 360 360 358 356 356 354 355 354 350 352 355 353 356 359 358 361 355 354 355 358 354 351 351 351 354 352 351 352 353 360 359 359 358 359 360 359 360 360 359 357 356
336 339 339 340 341 342 343 343 341 340 341 341 342 341 341 342 344 347 350 351 353 357 360 361 361 360 357 354 352 351 351 353 354 356 356 356 356 356 360 358 358 358 357 354 352 350 352 351 351 348 346 345 348 350 354 356 355 362 365 365 359 356 356
334 335 336 336 335 335 336 338 339 338 338 340 342 343 343 343 344 346 347 348 348 349 351 355 354 359 358 350 348 348 349 351 352 354 352 354 353 354 355 356 358 359 357 354 353 351 351 347 347 350 350 349 347 347 348 348 351 342 333 338 350 360 355
333 333 333 334 334 334 334 336 338 338 337 340 342 343 343 344 344 344 344 346 347 348 350 350 350 350 349 347 349 350 351 352 353 351 351 351 350 350 351 352 352 353 354 353 350 350 349 347 348 349 352 353 350 350 351 350 346 329 333 337 338 350 356
333 332 331 332 333 333 333 334 336 336 337 339 340 340 342 343 342 342 343 344 345 347 348 346 346 346 348 349 349 349 350 351 352 351 349 349 349 348 349 350 352 352 353 355 353 353 350 348 349 348 350 352 348 349 352 348 337 327 331 333 335 338 354
332 332 333 334 334 334 335 336 337 338 338 340 341 340 341 341 339 340 342 343 343 342 343 344 343 344 344 346 348 347 349 351 350 349 349 349 349 348 348 350 352 354 355 354 353 353 351 352 349 350 352 355 351 349 347 342 331 327 328 329 331 335 344
330 330 330 331 332 333 334 336 338 339 339 340 341 342 341 340 340 340 340 340 339 340 341 342 342 342 342 341 342 344 345 347 349 349 348 348 348 348 348 349 351 353 352 352 352 348 348 351 350 351 353 354 355 348 340 333 323 323 326 326 328 331 351
331 332 331 332 332 333 333 335 336 338 338 341 342 341 340 338 340 339 338 339 338 339 339 339 338 339 340 340 341 341 342 342 342 342 343 345 345 345 344 344 346 349 350 351 350 349 350 349 350 350 351 353 353 347 339 331 319 320 321 323 326 337 356
328 332 334 335 336 336 337 337 338 338 338 338 339 339 339 339 339 337 337 337 338 337 337 336 336 337 338 338 339 341 341 340 340 340 340 341 341 343 344 345 345 346 350 349 348 347 346 346 346 348 349 350 351 345 334 327 319 315 316 318 322 342 353
322 323 329 328 329 332 336 338 340 341 340 339 338 337 336 336 335 334 333 333 334 332 332 332 332 334 335 336 337 338 339 339 338 337 339 339 340 341 343 344 343 343 346 345 346 346 348 348 346 348 350 349 348 338 330 325 321 314 313 315 319 337 350
320 320 317 319 320 320 321 322 323 326 332 330 327 329 332 334 334 332 331 331 331 331 329 329 331 332 332 333 335 337 338 339 339 339 338 338 338 339 338 339 342 344 345 345 345 345 346 347 344 344 346 345 341 339 330 327 324 314 313 314 316 334 347
315 315 316 318 319 321 324 326 325 324 324 324 326 328 329 325 325 325 324 325 325 324 325 326 328 331 335 336 335 335 337 340 341 339 337 335 334 336 337 340 341 341 344 344 344 343 344 345 344 344 344 340 334 333 332 329 327 322 312 312 314 322 349
317 317 317 319 320 323 318 320 321 322 323 324 325 327 328 325 323 322 325 323 322 323 325 326 328 329 328 328 328 329 331 333 338 335 338 339 338 339 339 338 338 340 342 342 343 343 342 343 340 336 335 336 336 335 334 331 327 325 312 310 311 315 328
320 319 321 324 325 320 317 318 319 320 321 324 324 324 324 324 323 322 322 322 321 322 326 327 328 326 326 327 327 327 327 329 334 339 338 341 340 338 338 340 342 343 342 341 340 340 339 339 337 333 330 330 331 331 330 333 331 328 319 313 310 311 317
319 318 317 317 317 319 317 315 316 317 318 319 320 321 323 323 322 322 322 321 322 324 325 326 327 328 328 326 324 328 327 329 328 331 336 338 341 339 339 341 342 341 341 339 338 337 337 335 333 331 329 329 329 329 329 329 329 327 326 317 313 312 314
319 319 319 319 318 318 318 314 314 314 317 319 319 319 320 320 319 321 321 321 325 326 327 324 324 327 329 328 327 325 325 326 327 327 328 330 334 337 338 340 342 342 340 338 338 336 335 335 334 331 327 324 325 326 327 328 329 327 327 324 317 315 314
315 315 316 316 317 321 319 316 316 317 318 319 320 321 321 321 321 321 319 321 326 326 327 326 326 328 328 322 320 320 323 325 323 325 325 326 326 324 328 333 332 327 326 333 337 336 335 336 336 334 330 326 324 325 326 327 326 327 327 328 326 319 316
315 315 317 318 317 318 317 318 316 315 315 313 312 312 316 314 317 319 320 323 325 323 326 329 330 325 325 323 320 316 320 321 321 322 323 322 322 328 330 326 324 322 321 319 319 323 332 336 336 336 333 329 328 328 328 329 328 326 325 327 329 329 324
315 315 315 318 319 319 316 314 314 316 317 315 316 314 313 312 313 315 317 321 324 326 327 328 327 326 327 322 320 322 319 322 322 320 320 318 318 321 326 328 322 317 318 316 315 318 323 323 325 327 328 329 327 323 321 319 318 317 317 317 316 317 320
316 316 318 320 321 320 318 315 313 314 316 314 313 315 315 314 313 313 312 315 318 322 325 327 326 321 319 321 328 326 322 326 331 324 319 317 318 320 321 322 318 314 316 317 317 317 319 321 322 323 323 323 323 322 319 317 316 314 311 313 312 312 313
318 318 318 320 319 320 316 316 315 315 316 316 316 316 315 315 315 317 315 315 316 318 319 323 327 322 317 319 321 322 327 324 325 323 319 317 317 316 315 316 320 318 316 318 318 317 315 317 320 324 322 320 320 321 318 316 315 315 306 309 304 306 309
321 321 320 321 321 319 319 320 317 316 315 314 315 315 315 315 316 318 318 319 319 321 318 319 321 320 316 318 319 320 320 321 322 323 324 320 316 316 316 313 306 311 319 318 315 305 300 306 315 318 318 314 313 316 316 315 315 306 299 297 297 297 297
321 322 322 322 321 320 319 319 320 318 317 317 318 317 317 316 316 318 320 320 320 322 323 323 325 322 319 318 320 322 320 320 320 322 324 323 323 319 318 315 313 298 299 308 307 301 295 293 294 303 314 316 310 309 305 306 301 297 297 296 296 296 296
323 322 322 321 321 319 318 317 318 318 319 317 318 317 317 317 318 318 320 322 322 322 321 322 322 321 321 321 322 326 324 321 324 324 323 322 322 321 321 315 315 316 301 296 302 301 295 293 292 292 296 302 312 315 309 301 296 295 295 295 295 295 294
Wind_Speed
9 5 9 11 11 10 11 13 13 13 11 10 15 15 15 13 13 11 12 12 12 10 10 11 10 8 8 7 7 6 5 6 5 5 6 7 7 7 6 5 5 5 5 5 5 6 5 5 5 6 4 4 4 3 3 3 3 3 4 3 3 3 2
8 8 5 10 10 11 10 12 12 12 11 9 15 16 14 14 13 12 13 12 12 12 11 12 10 10 9 7 8 6 6 7 5 5 6 5 5 6 7 6 6 6 5 5 5 4 5 4 5 5 5 5 5 4 4 3 4 4 4 3 3 3 2
9 7 7 7 8 10 10 12 11 11 11 10 15 14 15 14 14 13 13 13 13 11 11 12 10 10 9 7 8 7 7 7 5 6 7 6 7 8 7 6 6 6 6 6 5 5 5 6 5 5 5 5 6 5 4 3 4 3 4 3 3 3 3
8 9 6 6 8 9 9 11 11 11 11 11 13 16 15 16 14 14 13 14 14 12 13 11 11 10 10 9 8 8 7 7 7 6 6 6 6 7 7 5 6 6 6 6 6 5 4 6 6 5 6 6 5 6 5 5 4 4 4 3 3 3 4
8 8 7 4 4 10 9 11 10 11 11 13 10 15 16 15 14 13 13 14 14 13 14 13 11 10 9 9 8 8 8 8 7 6 6 6 7 5 8 7 7 6 6 7 6 5 4 7 7 6 6 6 5 6 6 5 6 5 4 4 3 3 4
12 11 9 7 4 7 11 12 11 12 12 13 11 12 16 15 13 15 14 14 13 12 11 11 11 10 10 10 9 8 7 6 6 6 7 6 8 7 7 7 8 6 7 7 6 6 5 5 6 5 7 6 5 7 6 5 6 6 5 5 5 3 4
14 14 12 9 5 3 10 12 12 11 11 12 10 11 15 13 15 14 12 14 13 14 13 13 12 11 9 9 9 9 10 8 7 7 6 6 7 8 6 6 7 7 7 6 5 6 6 6 5 6 7 6 5 5 6 5 5 6 5 5 5 4 4
14 13 13 11 7 5 4 11 12 11 11 10 11 11 15 13 14 14 13 13 12 13 12 12 12 11 10 9 9 9 11 10 8 8 6 5 6 6 5 4 5 7 6 8 6 7 7 6 6 5 7 7 7 6 8 7 6 6 5 6 6 5 5
12 12 13 12 8 6 3 7 11 11 12 12 13 11 13 13 14 14 14 14 12 13 13 13 12 10 10 9 10 8 10 10 8 8 7 7 5 9 8 7 5 5 6 6 5 6 7 7 6 6 7 6 5 7 7 8 8 6 6 6 6 6 5
10 11 11 12 10 6 3 4 9 9 10 11 12 10 12 11 11 13 13 14 12 14 15 13 11 11 12 10 10 9 9 9 9 10 9 8 6 7 8 8 8 6 7 7 5 7 7 8 7 6 7 8 6 6 6 7 7 6 6 8 7 6 6
4 10 9 11 10 7 5 3 6 10 10 10 11 10 10 11 9 11 11 13 12 13 14 12 10 12 13 11 12 10 9 10 9 10 10 8 7 7 7 7 7 7 8 7 7 7 6 7 7 5 7 8 6 6 6 7 6 6 5 5 7 7 6
9 7 4 9 7 3 1 2 3 6 8 8 10 10 10 11 9 9 9 11 10 12 11 9 9 12 13 11 11 10 9 9 8 9 11 10 8 9 8 8 6 7 9 8 8 8 8 7 7 6 7 7 6 6 7 7 7 6 6 5 5 6 6
7 10 12 13 10 11 11 10 2 5 6 8 9 8 10 11 9 8 8 8 8 8 9 7 10 11 13 10 10 10 8 8 8 7 7 9 8 8 7 8 7 6 8 8 7 7 8 8 7 7 7 6 6 6 7 7 7 7 7 6 4 5 6
9 7 5 8 12 7 4 9 7 2 6 6 9 9 9 8 8 8 7 7 5 6 6 5 8 9 9 10 8 9 8 5 3 2 1 0 3 5 5 4 5 5 6 8 7 7 6 8 8 6 6 7 7 6 6 7 7 6 6 6 6 4 4
6 6 5 5 5 11 10 7 2 1 3 3 5 9 9 7 6 5 4 5 5 5 5 5 6 6 7 8 7 6 6 6 4 4 3 3 4 4 2 2 1 1 2 6 5 3 2 3 5 4 4 3 5 7 6 6 7 6 5 6 6 6 5
6 5 3 3 2 1 3 6 10 13 13 14 16 16 16 14 13 13 13 12 11 9 7 5 5 6 5 7 6 4 3 3 3 4 3 4 3 3 4 3 4 6 5 1 2 4 2 4 8 9 10 10 11 13 8 3 3 4 11 10 7 6 5
4 3 5 6 7 8 9 10 10 9 11 13 13 12 10 6 6 7 9 9 11 10 12 13 11 8 8 9 4 1 2 3 4 2 2 3 2 3 3 4 3 5 5 6 7 7 7 7 7 6 6 5 5 2 4 7 9 10 9 6 5 6 7
6 6 7 7 6 7 10 9 8 10 10 13 12 11 9 7 6 8 8 7 6 4 4 7 8 9 9 5 5 4 1 4 3 1 2 2 3 3 3 3 3 4 5 5 5 3 3 7 8 6 6 5 4 1 3 4 3 8 8 6 3 5 4
8 9 8 9 10 10 8 10 9 9 10 10 10 10 11 10 11 12 10 9 8 9 8 7 7 7 7 5 1 5 3 3 3 2 2 2 2 2 2 2 2 2 3 5 4 4 3 2 4 6 5 5 6 4 2 0 5 8 6 4 5 3 3
10 9 9 10 11 11 7 6 8 7 8 10 11 11 10 11 12 11 10 10 9 9 8 7 7 8 8 6 4 3 6 3 2 2 3 2 2 2 2 2 3 3 4 4 4 4 5 5 5 3 3 3 4 3 2 2 7 8 6 5 5 3 3
10 9 7 9 10 11 12 11 10 8 10 10 7 6 8 8 9 10 11 10 10 8 7 6 6 7 7 7 5 3 6 6 5 3 2 2 2 3 4 6 6 4 3 3 4 5 6 6 6 3 1 1 2 4 3 3 9 8 8 6 5 5 3
9 8 8 7 9 8 8 10 10 9 8 5 8 6 7 8 9 10 9 8 8 6 6 7 8 8 8 8 6 6 6 6 7 8 9 6 3 3 3 5 6 4 2 2 4 4 5 5 4 2 2 1 1 4 4 3 9 9 8 8 7 6 1
9 7 6 7 7 8 8 8 8 8 7 6 7 7 7 6 8 9 9 9 7 7 6 6 6 5 6 6 6 4 5 5 5 6 3 4 6 5 4 5 5 1 0 3 3 4 3 3 2 2 1 1 2 6 5 5 10 11 9 8 9 5 2
11 11 11 12 12 12 11 8 6 6 9 9 9 8 8 8 7 8 10 9 8 7 5 5 5 5 6 5 3 4 3 4 5 3 2 4 3 2 3 3 2 2 1 3 3 4 3 2 2 3 5 5 6 6 5 3 6 9 9 9 8 5 2
9 10 11 13 13 15 17 15 16 14 10 11 11 9 7 5 6 8 8 7 7 5 6 5 4 2 3 3 2 3 3 4 4 2 2 4 3 2 3 2 2 1 1 2 2 3 3 3 1 3 5 6 5 7 7 4 5 8 9 9 9 5 2
9 9 10 10 11 11 12 10 11 12 13 12 12 10 9 11 12 12 11 10 9 9 9 7 6 4 2 2 3 4 3 2 3 3 2 3 3 3 2 2 2 1 1 1 1 2 4 3 1 2 4 6 6 5 5 6 6 8 10 11 11 10 4
7 7 8 10 12 12 12 10 10 11 10 9 7 9 8 9 10 9 9 8 9 9 7 6 7 7 6 6 6 6 5 4 2 4 2 2 1 1 2 2 1 1 1 3 4 6 5 5 6 8 7 6 6 5 6 5 4 5 9 10 11 11 8
9 12 12 10 11 9 8 9 10 10 10 9 10 9 10 10 11 10 8 8 8 7 6 7 6 6 6 6 5 4 5 5 4 3 4 2 3 2 2 2 2 3 5 4 5 6 6 6 6 6 6 5 5 5 5 6 7 4 8 10 11 11 10
8 8 9 9 9 8 9 8 9 9 8 8 9 8 8 10 10 8 7 9 7 6 7 7 7 5 4 4 5 4 4 5 6 5 3 3 2 3 5 5 4 3 4 4 5 5 6 5 5 5 5 5 4 4 4 3 3 5 4 7 10 9 9
7 8 8 8 7 7 8 8 7 6 6 6 5 4 4 7 8 7 7 6 3 4 3 4 5 4 3 2 2 3 3 4 4 5 5 6 5 3 2 4 2 2 2 3 4 4 4 4 3 4 5 4 3 3 2 1 2 4 5 5 6 5 6
6 6 7 8 7 6 5 6 5 5 4 4 4 4 4 5 5 5 5 3 3 3 2 1 1 2 1 4 4 5 3 2 3 4 5 5 7 9 9 7 7 8 8 6 3 2 3 3 3 3 5 4 4 3 2 1 0 1 1 2 1 3 6
5 5 6 5 5 5 4 4 4 4 5 5 4 5 4 5 5 4 2 1 2 2 3 3 2 1 1 3 3 4 5 6 5 6 7 9 9 7 6 7 7 7 8 8 7 7 4 1 1 2 5 5 4 4 3 1 2 4 5 6 7 5 7
4 4 4 5 3 3 3 4 4 3 4 4 4 4 3 3 4 3 2 4 3 3 1 1 4 5 2 1 4 2 3 6 8 7 7 7 8 7 7 7 7 7 6 7 7 6 6 7 6 7 6 5 5 5 5 5 4 4 4 5 5 5 7
5 5 4 5 4 3 3 3 3 3 3 3 3 3 3 4 4 3 3 3 3 3 3 3 3 3 5 4 2 1 2 6 10 8 7 7 7 7 7 7 7 7 7 6 5 6 6 6 7 6 5 5 5 4 4 4 4 4 5 5 5 4 4
5 5 5 4 4 4 4 4 4 3 1 1 1 1 2 3 2 3 3 3 3 3 4 3 4 4 5 5 5 6 5 7 6 6 8 7 6 6 5 5 4 7 5 5 4 3 2 5 4 4 4 5 4 4 4 4 3 2 1 3 4 4 4
4 5 3 4 6 6 5 4 4 4 3 3 3 2 1 1 0 1 1 2 3 3 4 3 3 3 4 4 5 4 5 5 6 5 4 5 6 6 6 9 9 7 5 3 5 8 8 5 4 1 5 5 4 3 2 2 0 2 2 4 4 3 3
5 5 4 4 6 5 5 5 5 5 4 4 3 3 3 2 1 0 0 1 3 3 2 3 3 3 2 2 3 5 3 4 5 5 5 5 4 5 6 5 7 11 10 7 4 5 7 7 7 6 6 6 4 4 7 5 4 3 5 5 5 4 4
3 4 4 4 4 5 6 5 5 5 5 4 3 3 3 3 2 1 0 0 1 2 3 3 2 2 3 3 2 3 3 4 5 4 5 5 4 4 5 4 5 3 6 5 4 4 5 7 7 7 8 6 5 5 1 3 4 5 5 5 4 4 4
Wind_Direction
207 212 184 178 184 180 172 170 168 176 183 160 158 156 155 159 160 162 164 167 169 171 168 171 176 176 182 182 180 189 184 180 179 168 163 160 160 163 164 170 173 179 176 176 187 180 193 194 171 173 169 160 167 175 162 163 176 162 159 179 163 172 210
208 206 208 184 180 177 171 171 167 172 174 155 156 159 159 160 161 164 164 169 171 173 171 174 175 181 183 181 180 184 183 182 179 168 165 159 160 164 173 176 178 186 183 187 192 189 184 188 159 172 171 171 170 175 175 180 185 185 182 177 165 178 188
200 202 209 200 181 177 171 170 168 168 166 158 154 164 164 160 163 163 163 168 170 173 174 175 181 178 185 180 178 186 180 182 180 173 169 174 175 176 178 179 182 183 189 186 186 187 179 182 173 176 177 173 169 178 183 184 191 168 174 173 161 177 189
200 202 217 213 186 174 169 169 166 166 165 170 155 167 163 165 163 164 164 169 169 170 178 176 181 180 181 184 178 184 184 182 186 182 178 178 179 174 177 178 176 172 177 186 193 194 181 178 179 178 182 176 169 179 180 184 192 170 181 185 196 184 187
215 214 213 234 213 176 172 169 164 167 166 173 156 160 164 164 164 164 166 170 170 175 177 177 182 179 182 181 185 183 186 184 185 187 186 184 185 182 179 182 183 183 180 186 191 189 182 169 182 171 172 184 173 180 182 180 188 180 187 183 204 203 193
208 211 216 218 216 191 172 174 168 164 169 167 161 148 163 160 163 166 169 170 170 176 174 179 182 180 181 184 183 182 183 188 187 189 188 193 182 193 185 177 183 187 177 187 181 182 173 175 172 175 176 181 176 178 182 184 187 184 179 181 197 198 198
198 202 208 213 196 226 179 176 170 165 166 164 161 147 160 160 165 167 168 170 171 174 180 179 186 180 183 183 186 178 184 192 189 194 195 198 179 187 186 184 178 188 177 183 175 172 173 185 187 178 178 181 187 181 182 189 192 189 172 179 193 202 199
189 195 201 205 205 197 206 174 174 166 166 158 164 153 158 161 163 165 168 171 170 173 181 180 186 180 181 181 190 183 181 190 187 192 198 199 182 183 195 204 195 189 174 181 183 172 182 185 190 182 180 182 190 196 187 190 192 190 181 183 186 190 192
188 195 195 204 201 196 215 195 173 169 169 165 167 164 161 160 165 167 170 170 173 173 181 184 186 177 176 177 185 183 178 181 187 189 195 207 188 191 195 207 212 185 171 174 174 186 183 189 189 181 183 195 188 198 184 185 191 187 183 189 186 189 196
179 193 200 204 200 205 188 242 177 164 166 163 164 162 165 165 161 168 168 172 174 176 182 184 182 171 174 176 182 186 176 180 181 186 197 203 207 193 195 197 202 182 182 189 190 186 188 184 193 178 187 196 201 181 166 177 186 193 182 185 188 193 208
238 183 193 196 202 199 204 231 197 166 164 162 163 159 163 166 162 165 168 174 174 179 182 186 175 169 174 175 179 183 177 181 183 182 192 199 202 216 201 206 190 176 184 188 200 192 176 182 191 184 182 193 186 177 168 175 187 194 200 191 189 191 202
351 325 199 191 177 149 96 302 210 169 164 159 164 163 164 167 165 165 165 173 175 174 179 179 166 170 173 171 171 178 173 181 185 185 188 195 200 208 205 206 209 182 182 186 194 186 191 181 192 190 185 187 181 182 178 179 182 186 202 202 188 195 199
131 86 32 12 8 13 4 338 324 191 171 160 162 166 167 166 161 163 166 160 163 167 165 160 161 169 171 168 165 172 174 175 184 188 188 192 198 202 205 205 209 193 188 183 191 185 185 189 184 181 181 183 183 184 185 178 182 186 194 208 210 193 196
85 92 125 139 133 150 223 263 299 238 169 167 159 159 164 164 158 159 162 159 151 160 156 151 146 159 160 165 158 163 169 142 141 176 110 40 217 211 205 213 201 209 187 184 186 191 173 183 186 178 176 189 190 192 184 188 188 186 188 199 208 204 189
74 114 148 158 183 171 190 224 279 324 116 125 148 148 148 134 125 112 112 112 120 114 119 119 124 140 146 150 130 118 134 133 115 100 73 59 38 10 280 176 78 36 177 163 165 129 129 185 176 177 193 185 200 194 185 183 193 187 185 192 194 195 209
35 38 43 41 59 35 354 11 21 18 17 27 39 34 27 15 20 20 23 16 12 21 16 52 84 106 107 99 97 105 100 115 101 73 86 83 58 18 12 9 77 65 27 6 159 143 121 35 46 57 57 34 2 345 314 267 201 191 201 196 187 192 201
73 39 25 43 27 27 22 29 33 46 42 43 41 38 49 52 53 51 47 40 29 18 9 5 359 18 61 79 74 54 100 65 47 71 72 67 68 56 29 17 37 78 67 53 58 77 97 106 82 77 78 91 111 177 305 333 330 352 33 32 279 210 194
51 44 29 28 47 51 59 49 58 64 51 51 41 45 42 43 56 56 34 45 56 62 68 56 30 20 43 32 14 319 335 71 72 61 65 54 56 46 32 5 41 77 91 84 71 78 105 119 124 114 121 117 117 168 233 216 354 351 9 4 1 291 233
53 52 46 48 46 60 59 67 67 84 84 70 69 60 55 57 51 42 37 34 23 16 34 53 67 65 33 92 235 296 323 81 116 92 81 92 94 97 64 39 30 61 87 95 104 110 91 89 109 117 124 137 154 182 189 141 8 353 350 5 350 295 279
68 56 50 57 65 67 61 53 58 54 76 81 78 78 75 75 74 67 58 52 37 25 19 29 43 65 84 59 84 315 317 353 78 122 103 81 73 56 65 49 53 90 80 73 72 87 85 82 89 92 115 151 187 187 103 79 6 348 356 16 19 355 247
63 63 60 60 62 74 78 69 65 49 45 38 43 74 84 74 78 81 73 66 54 32 26 31 38 41 60 75 58 52 339 4 24 44 46 56 50 45 28 22 18 38 56 74 76 68 64 71 86 89 93 38 135 135 91 52 357 349 349 0 10 336 263
44 55 62 66 73 59 71 91 96 97 93 99 94 82 76 86 89 84 81 79 82 74 58 39 37 34 38 51 52 41 27 16 35 38 21 7 26 25 36 58 337 348 16 86 98 91 85 77 80 95 97 91 95 121 93 45 13 352 350 343 359 332 320
14 17 47 62 72 76 68 66 78 88 92 77 75 87 84 85 88 95 94 80 67 65 55 62 60 53 57 51 37 48 70 54 34 54 73 51 36 37 38 91 145 169 5 81 83 90 102 136 120 83 43 71 30 82 61 32 7 358 351 348 345 341 11
22 22 26 33 32 42 38 37 53 81 90 91 86 84 88 92 95 92 90 91 94 91 87 75 73 68 69 66 55 71 70 83 93 99 89 77 71 50 45 32 39 58 57 96 107 102 98 156 145 88 42 30 53 88 86 65 24 18 8 360 354 339 345
91 83 82 76 64 57 55 44 34 26 33 57 60 63 76 84 94 93 91 101 102 93 73 62 61 64 94 120 133 124 112 106 111 123 117 103 96 95 79 21 16 20 60 91 104 109 108 108 80 75 82 106 112 96 97 83 47 32 27 26 13 6 335
86 79 71 78 82 89 86 70 55 55 53 47 41 30 38 61 66 64 62 56 54 54 54 51 44 31 35 61 78 62 76 107 123 125 84 80 119 138 137 148 97 360 322 16 71 108 131 146 149 120 99 93 89 85 76 63 29 21 17 34 31 17 43
88 91 87 76 72 70 72 71 71 67 63 60 64 67 51 52 58 63 68 62 58 46 37 33 37 33 36 39 42 37 27 20 57 87 74 77 18 49 96 104 91 105 64 53 53 69 67 86 100 97 87 79 83 86 83 87 70 35 23 34 39 36 43
76 71 69 70 71 70 73 72 69 69 65 62 60 57 61 63 63 53 45 49 50 43 23 23 24 35 36 39 37 26 18 19 32 86 101 52 31 35 21 348 10 68 75 71 75 74 70 73 80 81 75 64 53 55 53 63 78 68 38 37 41 42 48
66 79 83 80 72 71 76 71 64 59 60 61 63 62 62 67 68 58 51 51 37 33 33 19 7 13 37 38 33 15 11 18 23 25 56 101 95 56 65 64 55 60 74 90 84 81 83 86 94 99 93 77 52 48 46 26 57 73 69 53 50 44 48
68 67 69 67 82 92 91 87 79 73 58 57 64 66 73 95 95 84 74 57 28 44 60 35 7 6 16 33 28 8 22 14 13 17 32 39 35 42 76 115 131 110 104 116 113 110 107 110 102 86 84 84 77 55 50 58 76 84 83 86 61 19 33
87 87 86 84 76 69 69 79 82 84 82 64 55 34 41 35 69 92 96 98 68 50 37 43 330 317 26 66 48 21 358 30 36 28 29 28 44 46 30 33 41 39 18 4 16 86 136 147 137 132 117 128 117 123 115 114 73 34 27 347 269 313 332
100 101 93 86 80 79 77 69 74 84 83 68 66 65 53 49 49 58 20 110 113 100 91 68 353 335 75 83 80 61 51 41 18 19 32 50 42 46 59 52 46 41 27 26 21 6 2 78 156 199 149 140 140 141 138 88 42 25 12 10 12 7 354
141 129 121 107 115 102 90 91 84 64 50 43 14 23 33 45 50 52 32 28 3 359 353 70 68 46 19 99 85 76 93 83 65 65 51 45 52 43 46 58 58 54 44 36 18 16 16 33 31 38 54 86 83 77 69 56 33 13 5 9 5 4 357
137 123 115 131 141 122 97 76 64 54 44 33 5 16 24 21 10 8 8 13 8 347 1 32 51 73 70 69 97 69 60 69 89 85 70 69 62 58 44 48 54 44 43 30 8 22 20 39 25 33 45 55 74 77 64 48 30 22 359 356 1 357 352
142 138 148 157 136 130 130 133 126 118 106 79 24 360 10 1 351 356 359 349 353 10 32 37 43 49 53 44 46 39 72 82 73 97 105 91 79 69 74 77 66 85 71 31 0 360 13 77 56 41 42 53 44 64 70 36 28 6 336 336 334 354 360
141 136 146 150 147 140 131 125 126 127 142 177 181 182 182 216 332 4 351 332 322 348 21 12 28 52 72 79 74 59 54 61 67 63 82 107 114 102 74 65 74 73 89 81 8 28 28 46 97 31 81 73 40 21 78 106 74 74 352 297 306 310 283
143 134 127 110 109 119 124 133 135 142 153 165 168 160 160 163 204 209 351 319 317 334 339 333 354 41 68 65 79 113 125 98 77 70 57 51 89 109 109 114 68 65 68 71 56 29 20 44 42 55 117 133 117 24 29 77 125 187 230 248 253 265 286
159 135 134 131 130 138 136 143 155 156 155 163 160 155 143 130 143 180 244 342 331 347 10 8 26 25 9 21 24 60 79 85 100 96 92 65 58 98 130 121 96 68 46 59 45 34 43 40 36 34 43 66 118 153 197 208 223 229 242 259 280 282 299